Time,TemperatureF,DewpointF,PressureIn,WindDirection,WindDirectionDegrees,WindSpeedMPH,WindSpeedGustMPH,Humidity,HourlyPrecipIn,Conditions,Clouds,dailyrainin,SolarRadiationWatts/m^2,SoftwareType,DateUTC
2013-02-25 00:00:00,31.5,25.0,30.17,WSW,249,4.0,7.0,77,0.00,,,0.00,0,weatherlink.com 1.10,2013-02-25 07:00:00,
2013-02-25 00:15:00,31.2,25.0,30.17,WSW,258,4.0,6.0,77,0.00,,,0.00,0,weatherlink.com 1.10,2013-02-25 07:15:00,
2013-02-25 00:30:00,31.1,25.0,30.17,WSW,246,3.0,7.0,77,0.00,,,0.00,0,weatherlink.com 1.10,2013-02-25 07:30:00,
2013-02-25 00:46:00,31.2,24.0,30.16,West,269,4.0,9.0,76,0.00,,,0.00,0,weatherlink.com 1.10,2013-02-25 07:46:00,
2013-02-25 01:00:00,30.6,25.0,30.16,WSW,250,5.0,7.0,78,0.00,,,0.00,0,weatherlink.com 1.10,2013-02-25 08:00:00,
2013-02-25 01:16:00,30.7,24.0,30.16,SW,223,5.0,10.0,77,0.00,,,0.00,0,weatherlink.com 1.10,2013-02-25 08:16:00,
2013-02-25 01:30:00,30.3,24.0,30.16,West,267,6.0,7.0,77,0.00,,,0.00,0,weatherlink.com 1.10,2013-02-25 08:30:00,
2013-02-25 01:46:00,29.9,24.0,30.17,West,266,0.0,8.0,77,0.00,,,0.00,0,weatherlink.com 1.10,2013-02-25 08:46:00,
2013-02-25 02:00:00,28.3,23.0,30.17,West,266,0.0,1.0,79,0.00,,,0.00,0,weatherlink.com 1.10,2013-02-25 09:00:00,
2013-02-25 02:16:00,29.1,23.0,30.16,WSW,258,3.0,5.0,78,0.00,,,0.00,0,weatherlink.com 1.10,2013-02-25 09:16:00,
2013-02-25 02:30:00,29.4,23.0,30.16,WSW,258,0.0,3.0,76,0.00,,,0.00,0,weatherlink.com 1.10,2013-02-25 09:30:00,
2013-02-25 02:46:00,29.0,23.0,30.15,WSW,258,1.0,2.0,77,0.00,,,0.00,0,weatherlink.com 1.10,2013-02-25 09:46:00,
2013-02-25 03:01:00,28.8,22.0,30.14,WSW,258,1.0,3.0,77,0.00,,,0.00,0,weatherlink.com 1.10,2013-02-25 10:01:00,
2013-02-25 03:16:00,28.2,22.0,30.14,West,265,1.0,3.0,78,0.00,,,0.00,0,weatherlink.com 1.10,2013-02-25 10:16:00,
2013-02-25 03:31:00,27.6,22.0,30.14,West,281,1.0,2.0,78,0.00,,,0.00,0,weatherlink.com 1.10,2013-02-25 10:31:00,
2013-02-25 03:46:00,28.6,22.0,30.14,West,265,2.0,4.0,76,0.00,,,0.00,0,weatherlink.com 1.10,2013-02-25 10:46:00,
2013-02-25 04:01:00,28.4,22.0,30.14,WSW,255,2.0,4.0,76,0.00,,,0.00,0,weatherlink.com 1.10,2013-02-25 11:01:00,
2013-02-25 04:16:00,27.1,21.0,30.14,WSW,256,0.0,2.0,77,0.00,,,0.00,0,weatherlink.com 1.10,2013-02-25 11:16:00,
2013-02-25 04:31:00,24.7,20.0,30.14,WSW,256,0.0,0.0,81,0.00,,,0.00,0,weatherlink.com 1.10,2013-02-25 11:31:00,
2013-02-25 04:47:00,22.9,19.0,30.14,NNW,335,2.0,3.0,83,0.00,,,0.00,0,weatherlink.com 1.10,2013-02-25 11:47:00,
2013-02-25 05:01:00,21.5,17.0,30.14,NNW,335,0.0,2.0,84,0.00,,,0.00,0,weatherlink.com 1.10,2013-02-25 12:01:00,
2013-02-25 05:17:00,20.2,17.0,30.13,NNW,335,0.0,2.0,86,0.00,,,0.00,0,weatherlink.com 1.10,2013-02-25 12:17:00,
2013-02-25 05:31:00,19.9,17.0,30.13,NNW,335,1.0,1.0,87,0.00,,,0.00,0,weatherlink.com 1.10,2013-02-25 12:31:00,
2013-02-25 05:47:00,19.5,17.0,30.12,NNW,335,0.0,0.0,88,0.00,,,0.00,0,weatherlink.com 1.10,2013-02-25 12:47:00,
2013-02-25 06:01:00,19.5,17.0,30.12,NNW,335,0.0,0.0,88,0.00,,,0.00,0,weatherlink.com 1.10,2013-02-25 13:01:00,
2013-02-25 06:17:00,19.7,17.0,30.12,NNW,335,0.0,1.0,88,0.00,,,0.00,0,weatherlink.com 1.10,2013-02-25 13:17:00,
2013-02-25 06:31:00,19.6,17.0,30.12,NNW,335,0.0,0.0,88,0.00,,,0.00,0,weatherlink.com 1.10,2013-02-25 13:31:00,
2013-02-25 06:47:00,19.6,17.0,30.12,NNW,335,0.0,0.0,88,0.00,,,0.00,0,weatherlink.com 1.10,2013-02-25 13:47:00,
2013-02-25 07:02:00,-999.0,-99.9,30.12,North,-999,-999.0,-999.0,-999,0.00,,,0.00,,weatherlink.com 1.10,2013-02-25 14:02:00,
2013-02-25 07:17:00,19.6,17.0,30.12,NNW,335,0.0,1.0,88,0.00,,,0.00,21,weatherlink.com 1.10,2013-02-25 14:17:00,
2013-02-25 07:32:00,20.4,18.0,30.11,NNW,335,0.0,1.0,89,0.00,,,0.00,33,weatherlink.com 1.10,2013-02-25 14:32:00,
2013-02-25 07:47:00,21.6,19.0,30.11,NNW,335,0.0,0.0,88,0.00,,,0.00,49,weatherlink.com 1.10,2013-02-25 14:47:00,
2013-02-25 08:02:00,22.8,19.0,30.11,NNW,335,0.0,0.0,86,0.00,,,0.00,111,weatherlink.com 1.10,2013-02-25 15:02:00,
2013-02-25 08:17:00,24.8,21.0,30.11,NNW,335,0.0,1.0,85,0.00,,,0.00,105,weatherlink.com 1.10,2013-02-25 15:17:00,
2013-02-25 08:32:00,27.7,23.0,30.10,NNW,335,0.0,0.0,81,0.00,,,0.00,265,weatherlink.com 1.10,2013-02-25 15:32:00,
2013-02-25 08:48:00,30.0,25.0,30.10,West,265,3.0,4.0,81,0.00,,,0.00,334,weatherlink.com 1.10,2013-02-25 15:48:00,
2013-02-25 09:02:00,32.7,25.0,30.09,West,274,2.0,5.0,74,0.00,,,0.00,234,weatherlink.com 1.10,2013-02-25 16:02:00,
2013-02-25 09:17:00,34.2,26.0,30.09,West,259,2.0,4.0,73,0.00,,,0.00,311,weatherlink.com 1.10,2013-02-25 16:17:00,
2013-02-25 09:33:00,36.0,26.0,30.08,West,263,4.0,4.0,67,0.00,,,0.00,267,weatherlink.com 1.10,2013-02-25 16:33:00,
2013-02-25 09:47:00,36.6,26.0,30.08,West,273,4.0,6.0,65,0.00,,,0.00,274,weatherlink.com 1.10,2013-02-25 16:47:00,
2013-02-25 10:03:00,37.4,26.0,30.08,West,275,0.0,3.0,64,0.00,,,0.00,371,weatherlink.com 1.10,2013-02-25 17:03:00,
2013-02-25 10:18:00,38.2,26.0,30.07,WNW,285,3.0,6.0,61,0.00,,,0.00,429,weatherlink.com 1.10,2013-02-25 17:18:00,
2013-02-25 10:33:00,38.8,26.0,30.07,WNW,284,2.0,4.0,60,0.00,,,0.00,420,weatherlink.com 1.10,2013-02-25 17:33:00,
2013-02-25 10:48:00,40.5,26.0,30.06,WNW,284,3.0,5.0,56,0.00,,,0.00,496,weatherlink.com 1.10,2013-02-25 17:48:00,
2013-02-25 11:03:00,41.6,25.0,30.06,West,266,4.0,6.0,53,0.00,,,0.00,490,weatherlink.com 1.10,2013-02-25 18:03:00,
2013-02-25 11:18:00,41.9,27.0,30.05,NW,308,2.0,4.0,55,0.00,,,0.00,476,weatherlink.com 1.10,2013-02-25 18:18:00,
2013-02-25 11:33:00,41.8,26.0,30.05,NW,318,2.0,4.0,54,0.00,,,0.00,510,weatherlink.com 1.10,2013-02-25 18:33:00,
2013-02-25 11:48:00,42.8,26.0,30.04,NW,322,2.0,4.0,52,0.00,,,0.00,512,weatherlink.com 1.10,2013-02-25 18:48:00,
2013-02-25 12:04:00,44.3,27.0,30.04,NW,322,0.0,2.0,51,0.00,,,0.00,517,weatherlink.com 1.10,2013-02-25 19:04:00,
2013-02-25 12:18:00,45.0,26.0,30.03,NW,322,3.0,3.0,48,0.00,,,0.00,580,weatherlink.com 1.10,2013-02-25 19:18:00,
2013-02-25 12:34:00,46.1,27.0,30.02,NW,322,0.0,3.0,48,0.00,,,0.00,533,weatherlink.com 1.10,2013-02-25 19:34:00,
2013-02-25 12:48:00,46.8,26.0,30.02,WNW,301,2.0,4.0,44,0.00,,,0.00,541,weatherlink.com 1.10,2013-02-25 19:48:00,
2013-02-25 13:03:00,46.4,25.0,30.01,SSW,208,3.0,4.0,44,0.00,,,0.00,557,weatherlink.com 1.10,2013-02-25 20:03:00,
2013-02-25 13:18:00,46.5,26.0,30.00,SSE,165,1.0,3.0,45,0.00,,,0.00,531,weatherlink.com 1.10,2013-02-25 20:18:00,
2013-02-25 13:34:00,46.6,26.0,30.00,ESE,116,0.0,2.0,45,0.00,,,0.00,438,weatherlink.com 1.10,2013-02-25 20:34:00,
2013-02-25 13:49:00,45.4,28.0,30.00,East,97,2.0,5.0,51,0.00,,,0.00,396,weatherlink.com 1.10,2013-02-25 20:49:00,
2013-02-25 14:04:00,47.3,28.0,30.00,WSW,258,3.0,7.0,47,0.00,,,0.00,374,weatherlink.com 1.10,2013-02-25 21:04:00,
2013-02-25 14:20:00,48.0,26.0,29.99,West,266,3.0,5.0,42,0.00,,,0.00,441,weatherlink.com 1.10,2013-02-25 21:20:00,
2013-02-25 14:34:00,48.4,26.0,29.99,WNW,301,0.0,4.0,42,0.00,,,0.00,404,weatherlink.com 1.10,2013-02-25 21:34:00,
2013-02-25 14:50:00,48.4,27.0,29.98,WNW,296,2.0,3.0,43,0.00,,,0.00,390,weatherlink.com 1.10,2013-02-25 21:50:00,
2013-02-25 15:04:00,49.0,25.0,29.98,WNW,296,0.0,2.0,40,0.00,,,0.00,366,weatherlink.com 1.10,2013-02-25 22:04:00,
2013-02-25 15:20:00,49.2,25.0,29.98,WNW,296,0.0,0.0,39,0.00,,,0.00,346,weatherlink.com 1.10,2013-02-25 22:20:00,
2013-02-25 15:34:00,47.4,25.0,29.98,South,186,0.0,3.0,42,0.00,,,0.00,186,weatherlink.com 1.10,2013-02-25 22:34:00,
2013-02-25 15:50:00,47.3,24.0,29.98,South,186,0.0,0.0,40,0.00,,,0.00,218,weatherlink.com 1.10,2013-02-25 22:50:00,
2013-02-25 16:04:00,47.1,28.0,29.98,ENE,68,3.0,4.0,47,0.00,,,0.00,225,weatherlink.com 1.10,2013-02-25 23:04:00,
2013-02-25 16:20:00,44.6,30.0,29.98,East,85,3.0,5.0,56,0.00,,,0.00,135,weatherlink.com 1.10,2013-02-25 23:20:00,
2013-02-25 16:50:00,42.1,31.0,29.98,SE,127,4.0,4.0,65,0.00,,,0.00,91,weatherlink.com 1.10,2013-02-25 23:50:00,
2013-02-25 17:05:00,40.3,31.0,29.98,SE,130,4.0,4.0,69,0.00,,,0.00,46,weatherlink.com 1.10,2013-02-26 00:05:00,
2013-02-25 17:20:00,38.9,30.0,29.97,SE,130,3.0,4.0,71,0.00,,,0.00,25,weatherlink.com 1.10,2013-02-26 00:20:00,
2013-02-25 17:35:00,38.3,30.0,29.97,ESE,122,2.0,4.0,71,0.00,,,0.00,7,weatherlink.com 1.10,2013-02-26 00:35:00,
2013-02-25 17:50:00,37.1,30.0,29.97,East,94,2.0,3.0,74,0.00,,,0.00,0,weatherlink.com 1.10,2013-02-26 00:50:00,
2013-02-25 18:04:00,36.4,29.0,29.97,ESE,103,4.0,7.0,75,0.00,,,0.00,0,weatherlink.com 1.10,2013-02-26 01:04:00,
2013-02-25 18:19:00,35.9,29.0,29.97,East,94,3.0,6.0,76,0.00,,,0.00,0,weatherlink.com 1.10,2013-02-26 01:19:00,
2013-02-25 18:35:00,36.2,29.0,29.97,East,88,5.0,9.0,75,0.00,,,0.00,0,weatherlink.com 1.10,2013-02-26 01:35:00,
2013-02-25 18:50:00,35.9,29.0,29.97,East,82,8.0,8.0,75,0.00,,,0.00,0,weatherlink.com 1.10,2013-02-26 01:50:00,
2013-02-25 19:20:00,33.8,28.0,29.97,ESE,113,3.0,5.0,80,0.00,,,0.00,0,weatherlink.com 1.10,2013-02-26 02:20:00,
2013-02-25 19:35:00,33.4,28.0,29.98,ESE,109,3.0,3.0,81,0.00,,,0.00,0,weatherlink.com 1.10,2013-02-26 02:35:00,
2013-02-25 19:50:00,32.8,28.0,29.97,ESE,115,0.0,2.0,83,0.00,,,0.00,0,weatherlink.com 1.10,2013-02-26 02:50:00,
2013-02-25 20:05:00,32.8,28.0,29.98,ESE,115,0.0,1.0,82,0.00,,,0.00,0,weatherlink.com 1.10,2013-02-26 03:05:00,
2013-02-25 20:20:00,32.7,28.0,29.98,ESE,115,0.0,2.0,82,0.00,,,0.00,0,weatherlink.com 1.10,2013-02-26 03:20:00,
2013-02-25 20:35:00,32.4,28.0,29.98,ESE,115,0.0,1.0,82,0.00,,,0.00,0,weatherlink.com 1.10,2013-02-26 03:35:00,
2013-02-25 20:50:00,31.2,27.0,29.99,ESE,115,0.0,0.0,84,0.00,,,0.00,0,weatherlink.com 1.10,2013-02-26 03:50:00,
2013-02-25 21:05:00,30.9,27.0,29.99,ESE,115,0.0,0.0,86,0.00,,,0.00,0,weatherlink.com 1.10,2013-02-26 04:05:00,
2013-02-25 21:20:00,31.0,27.0,29.99,ESE,115,0.0,1.0,86,0.00,,,0.00,0,weatherlink.com 1.10,2013-02-26 04:20:00,
2013-02-25 21:35:00,31.0,27.0,30.00,ESE,115,1.0,2.0,86,0.00,,,0.00,0,weatherlink.com 1.10,2013-02-26 04:35:00,
2013-02-25 21:51:00,30.4,27.0,30.00,North,9,2.0,3.0,88,0.00,,,0.00,0,weatherlink.com 1.10,2013-02-26 04:51:00,
2013-02-25 22:05:00,30.7,28.0,30.00,SSE,159,0.0,3.0,89,0.00,,,0.00,0,weatherlink.com 1.10,2013-02-26 05:05:00,
2013-02-25 22:21:00,31.2,28.0,30.00,North,350,1.0,7.0,88,0.00,,,0.00,0,weatherlink.com 1.10,2013-02-26 05:21:00,
2013-02-25 22:35:00,32.3,28.0,30.00,NNW,342,2.0,7.0,85,0.00,,,0.00,0,weatherlink.com 1.10,2013-02-26 05:35:00,
2013-02-25 22:51:00,32.3,29.0,30.02,NNW,327,0.0,6.0,86,0.00,,,0.00,0,weatherlink.com 1.10,2013-02-26 05:51:00,
2013-02-25 23:05:00,32.4,29.0,30.02,NNW,327,0.0,0.0,86,0.00,,,0.00,0,weatherlink.com 1.10,2013-02-26 06:05:00,
2013-02-25 23:21:00,32.6,29.0,30.02,NNW,327,0.0,0.0,86,0.00,,,0.00,0,weatherlink.com 1.10,2013-02-26 06:21:00,
2013-02-25 23:35:00,32.5,29.0,30.03,NW,320,3.0,3.0,86,0.00,,,0.00,0,weatherlink.com 1.10,2013-02-26 06:35:00,
2013-02-25 23:50:00,31.8,29.0,30.03,NW,307,0.0,2.0,88,0.00,,,0.00,0,weatherlink.com 1.10,2013-02-26 06:50:00,